Back to catalog

SL-16 DEB

AliveLEO
NORAD 26075·DEBRIS·🇷🇺 Russia

Launched Feb 3, 2000 from Baikonur Cosmodrome

Loading…

Next Passes (next 24 hours)

TLE

FreshSource: Space-Track

Epoch: Sep 14, 2026, 06:02 UTC

1 26075U 00006E   26257.25179186  .00000099  00000-0  12744-3 0  9996
2 26075  71.0658 351.1992 0189071 194.5649 195.0375 13.76408325336183

Track SL-16 DEB in real time with AllMySat

Download on the App Store